TMW YBSU-YBAF

Flight info

Callsign TMW
Flight time 0h 57m
Altitude 5500
Route WRM/N0162A015 YDUN YSPT TAR
Aircraft PA24/L-SDGRY/S

Departure

Time 2026-05-08 01:53
Airport Sunshine Coast Airport (YBSU)

Arrival

Time 2026-05-08 02:50
Airport Brisbane Archerfield Airport (YBAF)
Time Latitude Longitude Altitude Speed Heading
2026-05-08 01:37 -26.60259 153.08654 16 ft 0 kts 217°
2026-05-08 01:47 -26.60270 153.08644 -5 ft 5 kts 234°
2026-05-08 01:48 -26.60180 153.08529 16 ft 7 kts 345°
2026-05-08 01:48 -26.60121 153.08573 16 ft 15 kts 37°
2026-05-08 01:48 -26.60053 153.08639 16 ft 14 kts 47°
2026-05-08 01:48 -26.59978 153.08645 16 ft 16 kts 320°
2026-05-08 01:49 -26.59883 153.08562 16 ft 17 kts 324°
2026-05-08 01:49 -26.59790 153.08484 16 ft 16 kts 321°
2026-05-08 01:49 -26.59694 153.08401 16 ft 17 kts 319°
2026-05-08 01:49 -26.59613 153.08331 16 ft 15 kts 324°
2026-05-08 01:50 -26.59515 153.08251 16 ft 20 kts 323°
2026-05-08 01:50 -26.59415 153.08197 16 ft 14 kts 29°
2026-05-08 01:50 -26.59378 153.08241 16 ft 0 kts 49°
2026-05-08 01:51 -26.59372 153.08249 16 ft 6 kts 49°
2026-05-08 01:51 -26.59340 153.08325 15 ft 15 kts 96°
2026-05-08 01:52 -26.59419 153.08400 15 ft 17 kts 143°
2026-05-08 01:52 -26.59654 153.08600 23 ft 76 kts 142°
2026-05-08 01:52 -26.60062 153.08956 55 ft 75 kts 152°
2026-05-08 01:52 -26.60487 153.09295 347 ft 79 kts 142°
2026-05-08 01:53 -26.60934 153.09721 662 ft 86 kts 152°
2026-05-08 01:53 -26.61480 153.09986 977 ft 89 kts 162°
2026-05-08 01:53 -26.62147 153.10221 1102 ft 112 kts 166°
2026-05-08 01:53 -26.62984 153.10465 1076 ft 136 kts 167°
2026-05-08 01:54 -26.63944 153.10713 1053 ft 145 kts 168°
2026-05-08 01:54 -26.64946 153.10994 1048 ft 151 kts 164°
2026-05-08 01:54 -26.65952 153.11367 1054 ft 154 kts 162°
2026-05-08 01:54 -26.66946 153.11736 1038 ft 146 kts 163°
2026-05-08 01:55 -26.67881 153.12093 1026 ft 140 kts 163°
2026-05-08 01:55 -26.68785 153.12444 1035 ft 139 kts 163°
2026-05-08 01:55 -26.69689 153.12798 1042 ft 136 kts 163°
2026-05-08 01:55 -26.70576 153.13156 1051 ft 134 kts 163°
2026-05-08 01:56 -26.71464 153.13463 1048 ft 134 kts 167°
2026-05-08 01:56 -26.72371 153.13718 1055 ft 136 kts 169°
2026-05-08 01:56 -26.73294 153.13919 1054 ft 134 kts 172°
2026-05-08 01:56 -26.74213 153.14074 1053 ft 134 kts 173°
2026-05-08 01:57 -26.75134 153.14217 1053 ft 133 kts 172°
2026-05-08 01:57 -26.76053 153.14374 1053 ft 134 kts 171°
2026-05-08 01:57 -26.76967 153.14538 1053 ft 133 kts 171°
2026-05-08 01:57 -26.77886 153.14707 1053 ft 133 kts 171°
2026-05-08 01:58 -26.78795 153.14880 1054 ft 133 kts 171°
2026-05-08 01:58 -26.79667 153.15051 1232 ft 115 kts 172°
2026-05-08 01:58 -26.80414 153.15190 1497 ft 105 kts 172°
2026-05-08 01:58 -26.81124 153.15326 1855 ft 101 kts 171°
2026-05-08 01:59 -26.81844 153.15458 2102 ft 106 kts 172°
2026-05-08 01:59 -26.82559 153.15585 2443 ft 103 kts 172°
2026-05-08 01:59 -26.83292 153.15717 2690 ft 110 kts 171°
2026-05-08 01:59 -26.84055 153.15857 2990 ft 111 kts 170°
2026-05-08 02:00 -26.84825 153.16011 3242 ft 115 kts 171°
2026-05-08 02:00 -26.85611 153.16170 3520 ft 114 kts 172°
2026-05-08 02:00 -26.86397 153.16324 3767 ft 116 kts 173°
2026-05-08 02:00 -26.87289 153.16490 3671 ft 142 kts 174°
2026-05-08 02:01 -26.88328 153.16661 3575 ft 154 kts 174°
2026-05-08 02:01 -26.89402 153.16858 3514 ft 160 kts 173°
2026-05-08 02:01 -26.90504 153.17065 3515 ft 160 kts 173°
2026-05-08 02:01 -26.91598 153.17269 3505 ft 158 kts 172°
2026-05-08 02:02 -26.92664 153.17476 3493 ft 153 kts 172°
2026-05-08 02:02 -26.93699 153.17670 3497 ft 149 kts 172°
2026-05-08 02:02 -26.94705 153.17868 3501 ft 145 kts 173°
2026-05-08 02:02 -26.95698 153.18055 3504 ft 145 kts 173°
2026-05-08 02:03 -26.96686 153.18239 3506 ft 144 kts 173°
2026-05-08 02:03 -26.97673 153.18427 3507 ft 144 kts 173°
2026-05-08 02:03 -26.98660 153.18609 3507 ft 144 kts 173°
2026-05-08 02:03 -26.99642 153.18793 3507 ft 143 kts 171°
2026-05-08 02:04 -27.00471 153.19365 3508 ft 144 kts 129°
2026-05-08 02:04 -27.00800 153.20415 3504 ft 149 kts 101°
2026-05-08 02:04 -27.00954 153.21577 3502 ft 150 kts 99°
2026-05-08 02:04 -27.01096 153.22740 3504 ft 152 kts 99°
2026-05-08 02:05 -27.01232 153.23922 3505 ft 152 kts 99°
2026-05-08 02:05 -27.01370 153.25097 3506 ft 153 kts 99°
2026-05-08 02:05 -27.01509 153.26281 3505 ft 153 kts 99°
2026-05-08 02:05 -27.01656 153.27459 3505 ft 154 kts 99°
2026-05-08 02:06 -27.01796 153.28634 3506 ft 155 kts 99°
2026-05-08 02:06 -27.01943 153.29818 3506 ft 156 kts 101°
2026-05-08 02:06 -27.02359 153.30927 3507 ft 154 kts 124°
2026-05-08 02:06 -27.02959 153.31921 3504 ft 154 kts 127°
2026-05-08 02:07 -27.03582 153.32895 3502 ft 154 kts 130°
2026-05-08 02:07 -27.04315 153.33766 3504 ft 153 kts 144°
2026-05-08 02:07 -27.05211 153.34394 3503 ft 151 kts 158°
2026-05-08 02:07 -27.06183 153.34806 3501 ft 149 kts 165°
2026-05-08 02:08 -27.07181 153.35107 3501 ft 148 kts 170°
2026-05-08 02:08 -27.08193 153.35323 3501 ft 148 kts 172°
2026-05-08 02:08 -27.09205 153.35520 3501 ft 147 kts 174°
2026-05-08 02:08 -27.10218 153.35692 3502 ft 147 kts 174°
2026-05-08 02:09 -27.11230 153.35863 3505 ft 147 kts 173°
2026-05-08 02:09 -27.12235 153.36042 3506 ft 147 kts 174°
2026-05-08 02:09 -27.13248 153.36211 3507 ft 147 kts 174°
2026-05-08 02:09 -27.14270 153.36391 3507 ft 150 kts 174°
2026-05-08 02:10 -27.15307 153.36567 3507 ft 150 kts 174°
2026-05-08 02:10 -27.16333 153.36736 3506 ft 149 kts 174°
2026-05-08 02:10 -27.17352 153.36913 3506 ft 148 kts 174°
2026-05-08 02:10 -27.18368 153.37086 3508 ft 149 kts 174°
2026-05-08 02:11 -27.19379 153.37259 3509 ft 148 kts 174°
2026-05-08 02:11 -27.20408 153.37439 3509 ft 151 kts 174°
2026-05-08 02:11 -27.21437 153.37617 3510 ft 149 kts 173°
2026-05-08 02:11 -27.22461 153.37799 3509 ft 149 kts 174°
2026-05-08 02:12 -27.23484 153.37970 3501 ft 149 kts 174°
2026-05-08 02:12 -27.24505 153.38145 3500 ft 148 kts 174°
2026-05-08 02:12 -27.25527 153.38318 3498 ft 149 kts 174°
2026-05-08 02:12 -27.26544 153.38492 3498 ft 148 kts 174°
2026-05-08 02:13 -27.27563 153.38670 3500 ft 149 kts 174°
2026-05-08 02:13 -27.28584 153.38848 3499 ft 149 kts 174°
2026-05-08 02:13 -27.29263 153.38969 3499 ft 148 kts 174°
2026-05-08 02:13 -27.30255 153.39139 3499 ft 148 kts 174°
2026-05-08 02:14 -27.31272 153.39313 3499 ft 148 kts 174°
2026-05-08 02:14 -27.32293 153.39486 3499 ft 149 kts 174°
2026-05-08 02:14 -27.33314 153.39660 3498 ft 148 kts 174°
2026-05-08 02:14 -27.34333 153.39833 3502 ft 148 kts 173°
2026-05-08 02:15 -27.35349 153.40014 3498 ft 148 kts 174°
2026-05-08 02:15 -27.36368 153.40189 3497 ft 148 kts 174°
2026-05-08 02:15 -27.37383 153.40369 3497 ft 147 kts 174°
2026-05-08 02:15 -27.38383 153.40542 3497 ft 148 kts 174°
2026-05-08 02:16 -27.39396 153.40714 3497 ft 148 kts 174°
2026-05-08 02:16 -27.40413 153.40890 3497 ft 148 kts 174°
2026-05-08 02:16 -27.41429 153.41063 3500 ft 148 kts 174°
2026-05-08 02:16 -27.42445 153.41235 3496 ft 148 kts 174°
2026-05-08 02:17 -27.43454 153.41414 3491 ft 148 kts 174°
2026-05-08 02:17 -27.44448 153.41586 3491 ft 148 kts 174°
2026-05-08 02:17 -27.45466 153.41766 3491 ft 148 kts 174°
2026-05-08 02:17 -27.46485 153.41940 3491 ft 148 kts 174°
2026-05-08 02:18 -27.47505 153.42112 3490 ft 148 kts 174°
2026-05-08 02:18 -27.48521 153.42290 3490 ft 147 kts 174°
2026-05-08 02:18 -27.49535 153.42465 3491 ft 147 kts 174°
2026-05-08 02:18 -27.50546 153.42638 3491 ft 148 kts 174°
2026-05-08 02:19 -27.51571 153.42793 3490 ft 148 kts 180°
2026-05-08 02:19 -27.52592 153.42694 3489 ft 148 kts 191°
2026-05-08 02:19 -27.53606 153.42547 3489 ft 147 kts 189°
2026-05-08 02:19 -27.54623 153.42410 3487 ft 147 kts 189°
2026-05-08 02:20 -27.55633 153.42276 3488 ft 146 kts 189°
2026-05-08 02:20 -27.56643 153.42137 3488 ft 146 kts 189°
2026-05-08 02:20 -27.57653 153.41997 3488 ft 147 kts 189°
2026-05-08 02:20 -27.58663 153.41856 3488 ft 146 kts 189°
2026-05-08 02:21 -27.59669 153.41715 3490 ft 146 kts 190°
2026-05-08 02:21 -27.60678 153.41569 3490 ft 146 kts 190°
2026-05-08 02:21 -27.61687 153.41423 3489 ft 146 kts 189°
2026-05-08 02:21 -27.62678 153.41284 3489 ft 146 kts 189°
2026-05-08 02:22 -27.63686 153.41146 3492 ft 146 kts 189°
2026-05-08 02:22 -27.64700 153.41006 3488 ft 147 kts 189°
2026-05-08 02:22 -27.65713 153.40865 3489 ft 147 kts 189°
2026-05-08 02:22 -27.66727 153.40724 3488 ft 147 kts 189°
2026-05-08 02:23 -27.67738 153.40579 3485 ft 146 kts 190°
2026-05-08 02:23 -27.68744 153.40434 3484 ft 145 kts 189°
2026-05-08 02:23 -27.69749 153.40290 3484 ft 146 kts 189°
2026-05-08 02:23 -27.70758 153.40150 3483 ft 147 kts 189°
2026-05-08 02:24 -27.71770 153.40012 3483 ft 146 kts 189°
2026-05-08 02:24 -27.72778 153.39872 3482 ft 146 kts 189°
2026-05-08 02:24 -27.73786 153.39715 3483 ft 146 kts 191°
2026-05-08 02:24 -27.74796 153.39532 3482 ft 148 kts 191°
2026-05-08 02:25 -27.75828 153.39317 3308 ft 154 kts 192°
2026-05-08 02:25 -27.76892 153.39115 3145 ft 155 kts 192°
2026-05-08 02:25 -27.77949 153.38927 2983 ft 154 kts 191°
2026-05-08 02:25 -27.79015 153.38762 2806 ft 155 kts 191°
2026-05-08 02:26 -27.80072 153.38566 2669 ft 154 kts 192°
2026-05-08 02:26 -27.81127 153.38323 2486 ft 154 kts 194°
2026-05-08 02:26 -27.82170 153.38053 2351 ft 153 kts 194°
2026-05-08 02:26 -27.83214 153.37801 2212 ft 154 kts 194°
2026-05-08 02:27 -27.84248 153.37555 2139 ft 149 kts 193°
2026-05-08 02:27 -27.85278 153.37353 1963 ft 152 kts 192°
2026-05-08 02:27 -27.86322 153.37106 1824 ft 153 kts 195°
2026-05-08 02:27 -27.87336 153.36814 1738 ft 146 kts 198°
2026-05-08 02:28 -27.88284 153.36483 1524 ft 141 kts 201°
2026-05-08 02:28 -27.89170 153.36080 1323 ft 135 kts 205°
2026-05-08 02:28 -27.90012 153.35664 1194 ft 125 kts 207°
2026-05-08 02:28 -27.90744 153.35232 1182 ft 113 kts 211°
2026-05-08 02:29 -27.91438 153.34791 1165 ft 116 kts 208°
2026-05-08 02:29 -27.92201 153.34488 1061 ft 115 kts 185°
2026-05-08 02:29 -27.92855 153.34730 882 ft 94 kts 139°
2026-05-08 02:29 -27.93196 153.35323 669 ft 87 kts 116°
2026-05-08 02:30 -27.93365 153.35952 507 ft 84 kts 92°
2026-05-08 02:30 -27.93163 153.36546 262 ft 81 kts 43°
2026-05-08 02:30 -27.92710 153.36865 107 ft 74 kts 26°
2026-05-08 02:30 -27.92282 153.37095 29 ft 62 kts 16°
2026-05-08 02:31 -27.91882 153.37263 283 ft 66 kts 26°
2026-05-08 02:31 -27.91437 153.37544 568 ft 82 kts 20°
2026-05-08 02:31 -27.90884 153.37472 893 ft 84 kts 336°
2026-05-08 02:31 -27.90448 153.36971 1030 ft 100 kts 297°
2026-05-08 02:32 -27.90448 153.36190 1068 ft 105 kts 242°
2026-05-08 02:32 -27.91056 153.35724 1007 ft 111 kts 199°
2026-05-08 02:32 -27.91790 153.35456 981 ft 113 kts 201°
2026-05-08 02:32 -27.92520 153.35159 941 ft 110 kts 202°
2026-05-08 02:33 -27.93215 153.34981 836 ft 99 kts 172°
2026-05-08 02:33 -27.93703 153.35420 674 ft 90 kts 113°
2026-05-08 02:33 -27.93817 153.36086 517 ft 88 kts 80°
2026-05-08 02:33 -27.93406 153.36534 325 ft 85 kts 18°
2026-05-08 02:34 -27.92882 153.36782 163 ft 78 kts 25°
2026-05-08 02:34 -27.92414 153.37026 21 ft 65 kts 24°
2026-05-08 02:34 -27.92000 153.37253 140 ft 75 kts 26°
2026-05-08 02:34 -27.91461 153.37461 420 ft 92 kts
2026-05-08 02:35 -27.90791 153.37304 707 ft 105 kts 342°
2026-05-08 02:35 -27.90080 153.37067 1005 ft 105 kts 346°
2026-05-08 02:35 -27.89355 153.36931 1321 ft 106 kts 351°
2026-05-08 02:35 -27.88595 153.36727 1482 ft 120 kts 339°
2026-05-08 02:36 -27.87824 153.36292 1559 ft 128 kts 324°
2026-05-08 02:36 -27.87126 153.35645 1573 ft 134 kts 319°
2026-05-08 02:36 -27.86391 153.34957 1544 ft 140 kts 320°
2026-05-08 02:36 -27.85591 153.34243 1381 ft 149 kts 321°
2026-05-08 02:37 -27.84791 153.33541 1408 ft 144 kts 321°
2026-05-08 02:37 -27.84004 153.32849 1410 ft 142 kts 321°
2026-05-08 02:37 -27.83228 153.32163 1419 ft 142 kts 320°
2026-05-08 02:37 -27.82453 153.31466 1418 ft 142 kts 320°
2026-05-08 02:38 -27.81678 153.30773 1420 ft 141 kts 321°
2026-05-08 02:38 -27.80907 153.30083 1419 ft 141 kts 321°
2026-05-08 02:38 -27.80133 153.29394 1419 ft 142 kts 321°
2026-05-08 02:38 -27.79362 153.28707 1421 ft 140 kts 321°
2026-05-08 02:39 -27.78586 153.28025 1418 ft 141 kts 321°
2026-05-08 02:39 -27.77811 153.27334 1419 ft 143 kts 320°
2026-05-08 02:39 -27.77034 153.26637 1414 ft 142 kts 320°
2026-05-08 02:39 -27.76262 153.25947 1414 ft 141 kts 320°
2026-05-08 02:40 -27.75494 153.25263 1418 ft 141 kts 320°
2026-05-08 02:40 -27.74723 153.24571 1418 ft 141 kts 321°
2026-05-08 02:40 -27.73955 153.23885 1416 ft 141 kts 321°
2026-05-08 02:40 -27.73188 153.23200 1421 ft 141 kts 321°
2026-05-08 02:41 -27.72411 153.22515 1422 ft 142 kts 321°
2026-05-08 02:41 -27.71636 153.21833 1420 ft 141 kts 321°
2026-05-08 02:41 -27.70871 153.21145 1422 ft 141 kts 320°
2026-05-08 02:41 -27.70094 153.20451 1418 ft 143 kts 321°
2026-05-08 02:42 -27.69313 153.19760 1420 ft 142 kts 321°
2026-05-08 02:42 -27.68534 153.19071 1423 ft 142 kts 321°
2026-05-08 02:42 -27.67757 153.18384 1419 ft 142 kts 320°
2026-05-08 02:42 -27.66988 153.17688 1417 ft 141 kts 320°
2026-05-08 02:43 -27.66225 153.17000 1418 ft 141 kts 321°
2026-05-08 02:43 -27.65454 153.16310 1418 ft 141 kts 321°
2026-05-08 02:43 -27.64693 153.15641 1415 ft 141 kts 321°
2026-05-08 02:43 -27.63919 153.14959 1415 ft 142 kts 321°
2026-05-08 02:44 -27.63143 153.14266 1414 ft 143 kts 321°
2026-05-08 02:44 -27.62364 153.13578 1412 ft 143 kts 321°
2026-05-08 02:44 -27.61578 153.12884 1404 ft 144 kts 320°
2026-05-08 02:44 -27.61015 153.11973 1376 ft 144 kts 289°
2026-05-08 02:45 -27.60644 153.10947 1397 ft 141 kts 294°
2026-05-08 02:45 -27.60449 153.09883 1377 ft 142 kts 265°
2026-05-08 02:45 -27.60754 153.08847 1435 ft 137 kts 245°
2026-05-08 02:45 -27.61144 153.07852 1392 ft 143 kts 252°
2026-05-08 02:46 -27.61370 153.06742 1311 ft 146 kts 264°
2026-05-08 02:46 -27.61323 153.05605 1258 ft 147 kts 283°
2026-05-08 02:46 -27.60952 153.04553 1208 ft 144 kts 298°
2026-05-08 02:46 -27.60447 153.03577 1148 ft 138 kts 301°
2026-05-08 02:47 -27.59988 153.02693 1080 ft 124 kts 298°
2026-05-08 02:47 -27.59599 153.01879 1053 ft 111 kts 292°
2026-05-08 02:47 -27.59331 153.01081 1000 ft 107 kts 291°
2026-05-08 02:47 -27.59065 153.00358 945 ft 93 kts 291°
2026-05-08 02:48 -27.58772 152.99734 780 ft 90 kts 309°
2026-05-08 02:48 -27.58295 152.99283 633 ft 85 kts 328°
2026-05-08 02:48 -27.57764 152.99157 424 ft 74 kts
2026-05-08 02:48 -27.57304 152.99395 224 ft 75 kts 40°
2026-05-08 02:49 -27.57264 152.99975 58 ft 89 kts 104°
2026-05-08 02:49 -27.57508 153.00641 330 ft 89 kts 126°
2026-05-08 02:49 -27.57849 153.01197 351 ft 77 kts 81°
2026-05-08 02:49 -27.57476 153.01291 95 ft 65 kts 293°
2026-05-08 02:50 -27.57373 153.00906 36 ft 36 kts 287°
2026-05-08 02:50 -27.57324 153.00742 40 ft 17 kts 294°
2026-05-08 02:50 -27.57252 153.00735 40 ft 9 kts 47°
2026-05-08 02:50 -27.57244 153.00840 40 ft 20 kts 78°
2026-05-08 02:51 -27.57208 153.00999 44 ft 20 kts 76°
2026-05-08 02:51 -27.57185 153.01107 46 ft 10 kts 76°
2026-05-08 02:51 -27.57165 153.01158 47 ft 6 kts 43°
2026-05-08 02:51 -27.57085 153.01199 50 ft 16 kts 30°
2026-05-08 02:52 -27.57047 153.01230 51 ft 4 kts 251°
2026-05-08 02:52 -27.57050 153.01225 48 ft 0 kts 219°
2026-05-08 02:55 -27.57051 153.01225 50 ft 0 kts 220°